Temperature
6 7 7 7 8 8 8 8 9 9 10 10 10 11 12 12 12 12 13 14 15 16 16 17 17 17 17 17 17 17 16 16 16 16 15 15 15 15 15 15 15 14 14 14
6 6 7 8 9 9 9 8 9 10 11 11 10 11 11 12 12 13 13 14 15 15 16 16 17 17 17 17 17 17 16 16 16 16 15 15 15 15 15 15 14 14 14 14
6 7 8 9 9 8 9 8 8 9 10 10 10 10 11 11 12 13 13 14 15 15 16 16 16 16 16 16 16 16 16 16 16 15 15 15 15 15 14 14 14 14 14 14
6 7 8 8 8 9 9 9 9 9 9 9 10 9 9 10 10 11 12 13 14 15 15 15 15 16 16 16 15 15 15 15 15 15 15 14 14 14 14 14 14 14 14 13
6 7 8 8 9 9 9 9 9 9 8 8 8 8 8 9 9 11 12 13 14 15 15 15 15 15 15 15 15 15 15 14 14 14 14 14 13 13 13 13 13 13 13 13
6 7 8 8 9 9 8 8 7 7 7 8 7 8 8 8 9 10 11 13 14 15 15 14 14 14 14 14 14 14 13 13 13 13 13 13 13 12 12 12 12 12 12 12
6 6 7 8 8 9 8 8 7 7 7 7 7 7 8 9 9 9 11 13 13 14 14 13 13 13 13 13 13 12 12 12 12 12 12 12 12 11 11 11 11 11 11 11
6 6 6 7 8 8 8 8 7 7 7 6 7 6 8 9 9 10 11 12 12 12 12 12 13 12 12 12 12 11 11 11 11 11 11 11 10 10 10 10 10 9 9 9
6 6 6 6 7 8 7 7 7 6 6 6 6 6 6 8 8 9 10 10 11 11 11 11 11 11 11 11 11 11 10 10 10 10 9 9 9 9 9 8 8 8 8 8
6 6 6 7 7 7 7 6 6 6 6 7 7 7 7 9 9 8 7 8 9 9 10 10 11 11 11 10 10 10 10 9 9 9 8 8 8 8 8 7 7 7 7 7
6 6 6 7 7 7 7 7 7 6 6 6 6 7 8 8 8 7 7 8 8 9 10 10 10 10 10 10 10 9 9 9 8 8 7 7 7 7 7 7 7 6 6 6
6 6 6 6 6 7 7 7 6 6 6 5 5 7 9 7 6 6 7 8 8 9 10 10 10 10 10 9 9 9 8 8 7 7 7 6 6 6 6 6 5 5 6 6
6 6 6 6 6 6 7 7 7 6 5 4 5 7 8 7 8 8 8 8 9 9 10 10 10 10 9 9 9 8 7 7 6 6 6 5 5 5 5 5 5 5 5 5
6 5 6 6 6 6 6 6 6 6 6 5 5 6 8 9 9 8 8 9 9 10 10 10 10 10 9 9 8 7 7 6 5 5 4 4 4 4 4 4 4 4 4 4
7 6 5 6 6 6 5 6 6 6 6 6 6 6 8 9 9 9 9 9 9 10 10 10 10 10 9 8 8 7 6 5 4 4 3 3 3 3 3 3 3 3 3 3
6 5 5 5 6 5 5 5 5 6 6 6 6 7 7 8 9 9 9 9 9 10 10 10 10 10 9 8 7 6 5 4 3 3 2 2 2 2 2 2 2 2 2 2
4 5 5 5 5 6 5 5 5 5 5 6 6 7 8 7 7 9 9 9 10 11 11 11 11 10 9 8 7 6 4 3 2 2 1 1 1 1 1 1 1 1 2 2
4 4 4 4 5 4 6 7 6 5 6 5 6 6 7 7 9 10 10 11 11 11 11 11 11 10 9 7 6 5 4 3 2 1 1 1 1 1 1 1 1 1 1 1
4 4 3 3 3 4 5 6 6 5 5 6 6 6 7 8 7 8 10 10 11 11 11 11 10 9 8 7 6 4 3 2 2 1 1 1 1 1 1 1 1 1 1 1
5 5 4 4 5 5 6 7 7 6 6 7 6 6 6 6 5 7 10 10 10 10 10 10 9 9 8 6 5 4 3 3 2 2 1 1 1 1 1 1 1 1 1 1
5 5 5 4 5 5 6 6 7 6 7 8 7 7 6 5 7 8 9 10 10 10 10 9 9 8 7 6 5 4 4 3 3 2 2 1 1 1 1 1 1 1 1 1
4 4 4 4 5 5 7 6 6 6 7 7 7 7 7 7 7 8 9 9 9 9 9 8 8 7 6 6 5 4 4 3 3 2 2 2 1 1 1 1 1 1 1 1
4 4 4 4 5 6 6 7 7 6 6 7 7 7 8 8 8 8 8 8 8 8 8 7 7 6 6 5 5 5 4 3 3 3 2 2 1 1 1 1 1 1 1 1
3 3 3 3 4 5 6 6 6 6 6 6 7 7 8 8 8 8 8 8 7 7 7 6 6 6 6 5 5 4 4 3 3 3 2 2 2 1 1 1 1 1 1 1
2 2 3 3 3 4 5 5 5 5 6 6 7 7 7 7 8 8 8 7 7 7 6 6 6 6 5 5 5 4 4 3 3 3 2 2 2 1 1 1 1 1 0 0
1 1 2 2 3 2 3 4 4 5 5 5 6 6 7 7 7 7 7 7 7 6 6 6 6 6 5 5 5 4 4 3 3 3 2 2 2 1 1 1 1 1 0 0
Wind_Speed
5 5 9 11 8 6 9 8 6 4 5 7 9 6 5 8 11 12 13 12 11 9 5 1 1 3 4 4 4 4 4 2 3 2 2 2 3 2 2 4 6 7 8 10
4 6 7 7 7 8 9 9 7 3 4 6 6 7 6 8 11 13 14 13 12 8 5 3 2 2 4 5 5 5 4 4 3 2 2 1 1 1 1 1 1 2 3 5
4 4 8 8 8 7 5 9 8 6 4 3 4 5 8 9 8 9 10 11 11 11 10 8 5 4 5 5 5 5 5 5 4 3 2 2 2 2 2 2 2 3 4 4
2 3 7 9 7 6 4 6 8 8 7 2 4 4 8 9 10 13 14 13 12 10 9 8 7 6 6 5 5 6 6 6 5 4 3 3 2 1 1 2 2 4 4 4
2 4 9 9 7 7 5 6 6 6 6 2 1 3 8 5 11 16 16 14 12 11 11 11 9 7 6 5 6 6 7 7 6 6 4 4 2 0 1 2 3 4 4 4
2 2 3 4 5 6 7 8 8 6 4 4 6 6 8 7 11 10 11 12 13 12 11 9 8 7 6 5 6 6 7 7 6 6 6 4 3 1 2 3 3 4 3 3
3 3 2 2 7 4 5 7 4 2 3 6 4 6 10 9 9 9 10 10 9 10 12 12 11 9 8 7 6 6 7 6 5 6 5 4 3 2 1 2 3 3 3 3
5 3 1 2 4 7 6 6 7 6 6 4 3 8 9 8 7 8 9 8 6 9 11 12 12 10 9 8 7 6 7 6 5 5 4 4 3 2 1 2 2 2 3 3
6 3 2 3 2 7 7 4 4 5 3 2 6 7 10 7 7 7 7 6 8 9 10 10 10 9 9 8 7 7 7 6 4 4 4 4 4 3 3 3 2 2 3 3
4 5 2 2 4 4 4 8 5 5 5 4 5 5 5 7 8 7 6 7 7 8 9 9 9 8 7 6 6 6 6 5 4 4 3 3 4 4 3 4 5 4 5 4
4 5 4 3 4 6 4 4 4 4 4 5 4 7 6 7 8 9 9 7 8 9 10 9 8 7 7 6 6 6 5 5 4 4 4 4 4 4 5 5 5 5 5 6
3 4 4 2 1 1 4 6 7 5 5 4 3 8 6 6 9 8 7 6 7 8 8 8 8 8 7 7 6 5 4 4 4 4 4 4 4 5 5 5 5 5 6 6
5 5 5 2 1 2 3 5 5 4 4 5 5 8 4 3 4 2 5 7 7 8 8 7 7 7 7 7 6 5 4 4 4 4 4 4 4 5 5 5 5 6 6 6
5 4 4 7 4 6 6 7 8 7 6 7 9 9 9 8 6 3 5 7 8 8 9 9 8 7 7 6 6 5 4 4 4 4 5 4 4 4 5 5 6 6 6 6
4 3 2 2 2 4 6 8 11 13 12 10 9 10 12 9 8 6 7 7 8 8 9 10 10 8 8 7 6 6 5 4 5 5 5 4 4 4 5 5 6 6 6 7
3 3 2 1 0 3 5 8 11 14 13 15 14 17 10 8 6 6 8 9 11 11 11 11 10 10 10 9 8 7 6 5 5 5 5 4 4 5 5 5 6 6 7 7
3 5 3 2 2 2 7 10 13 8 9 10 17 17 7 7 10 10 10 11 13 13 12 12 12 11 10 10 8 8 7 6 6 5 5 5 5 5 5 6 6 6 6 6
6 5 3 1 1 6 7 2 7 9 10 12 11 11 9 13 11 9 9 12 13 12 11 11 10 10 9 8 8 8 7 7 6 6 5 5 5 6 6 6 6 6 5 5
5 6 4 2 3 8 8 4 5 7 7 8 13 15 11 8 5 7 8 10 12 11 9 8 9 9 9 10 9 9 8 7 7 6 6 5 6 6 6 6 5 4 4 4
3 4 4 3 2 5 6 3 3 3 5 4 6 10 8 4 5 7 6 7 7 7 7 8 9 8 10 10 10 9 8 8 7 7 6 5 6 6 6 5 4 3 3 3
3 3 4 4 4 7 7 4 3 2 5 6 5 7 6 7 8 4 1 3 5 5 7 9 10 10 10 11 10 9 8 8 7 7 6 6 6 6 6 5 3 4 3 3
6 5 5 5 5 7 3 2 3 5 5 6 6 5 4 4 2 1 2 4 6 6 7 8 9 8 8 10 10 9 8 7 7 7 7 6 6 5 5 5 4 3 4 3
5 6 5 7 7 4 2 3 3 3 5 6 5 5 2 1 1 2 3 4 5 6 7 7 8 8 8 9 9 10 8 8 8 7 7 6 6 5 5 5 5 4 4 3
3 1 2 5 6 6 5 3 4 4 4 6 5 4 1 1 2 3 3 4 5 5 6 7 8 8 9 9 9 8 8 9 9 8 7 7 7 6 5 5 5 5 5 5
4 2 2 5 6 8 5 5 6 7 6 6 6 4 2 2 3 3 4 4 5 5 6 7 8 9 9 9 10 9 9 10 10 9 8 7 7 6 6 6 6 6 6 6
1 1 2 4 4 5 9 8 7 7 7 6 6 5 4 2 3 3 4 4 5 5 6 7 8 8 8 9 10 10 11 11 11 9 9 8 7 6 6 5 5 8 9 10
Wind_Direction
165 168 183 183 176 139 133 133 151 177 174 172 199 214 219 193 197 213 229 243 247 248 254 263 105 114 108 100 110 118 123 112 123 129 156 178 209 213 212 221 229 231 234 232
135 190 174 147 149 138 140 140 148 141 151 163 194 228 234 215 207 210 220 232 240 235 225 206 168 116 115 113 107 102 100 93 98 121 131 147 154 191 210 240 250 261 265 253
153 166 155 151 150 145 154 160 156 143 107 89 132 253 241 240 226 225 225 226 230 218 210 204 185 156 130 118 114 108 95 84 75 85 96 76 64 41 28 5 341 334 320 298
118 147 155 154 157 142 157 162 142 130 129 185 169 241 255 234 241 234 231 224 220 211 199 195 187 169 147 128 109 101 92 79 66 69 88 110 130 201 313 323 317 325 337 336
134 153 155 162 161 139 147 130 120 127 126 117 167 219 273 232 236 238 232 223 216 204 193 190 183 165 139 122 109 100 90 75 64 64 78 93 96 40 318 335 337 336 337 346
83 60 117 143 130 124 118 87 66 63 92 221 206 198 267 228 223 237 233 222 212 199 187 175 157 140 127 115 105 100 92 76 63 66 67 79 84 47 12 354 342 336 330 336
74 55 28 104 116 107 116 114 104 117 191 240 201 208 248 241 230 229 241 237 216 191 174 165 159 155 146 132 118 106 99 84 68 69 65 63 65 62 38 343 335 334 336 336
133 145 77 63 139 150 161 145 156 173 196 241 216 231 253 256 267 259 258 254 214 187 176 171 166 157 149 140 129 118 107 98 81 76 68 55 50 50 25 359 343 338 329 326
151 146 81 64 71 131 140 158 142 122 126 206 250 278 300 275 274 262 257 240 209 184 172 165 155 149 146 141 135 129 120 109 94 87 81 63 48 46 35 18 13 359 348 351
123 126 119 105 95 47 136 140 112 128 159 230 270 267 254 281 279 281 261 235 206 170 159 154 151 147 141 133 125 119 119 118 107 91 77 73 50 46 44 45 38 29 20 22
98 119 131 130 169 161 127 137 138 146 169 183 252 268 230 244 270 273 258 225 188 171 164 158 149 139 132 128 126 123 119 115 105 91 80 71 55 52 54 53 44 37 35 36
122 114 127 120 37 137 166 172 156 170 208 196 216 268 267 258 274 262 247 204 176 169 161 152 146 143 144 144 141 135 128 118 112 104 92 80 68 64 63 57 49 48 50 46
135 122 122 118 235 182 195 190 180 148 152 181 202 258 282 307 318 255 203 185 171 163 156 153 155 161 161 157 152 145 136 128 120 111 100 88 78 74 70 64 59 57 59 57
122 127 166 185 205 175 188 196 185 182 213 223 225 248 283 303 313 285 213 195 182 175 172 171 175 174 169 163 159 153 147 139 132 122 114 102 93 89 84 77 71 67 67 65
113 148 187 225 203 165 201 206 201 212 221 231 241 238 249 260 266 252 220 197 186 188 189 189 186 179 172 168 165 162 156 148 138 132 126 118 112 104 98 89 81 74 70 67
101 126 112 338 274 204 241 230 218 226 232 239 254 262 248 251 251 241 217 200 201 205 203 197 187 181 181 178 173 166 162 155 145 141 137 133 127 118 109 101 92 83 75 69
124 127 127 282 324 354 267 231 212 210 213 212 239 251 244 243 240 233 220 208 211 210 205 197 194 190 184 178 170 169 163 153 150 148 143 143 137 123 114 109 100 92 83 75
137 128 133 159 95 242 245 251 203 219 241 228 242 259 243 238 244 239 218 210 216 211 203 198 187 178 169 163 159 155 152 153 152 150 149 148 142 130 122 113 104 97 88 81
147 137 134 151 240 279 295 276 194 201 266 237 240 257 260 254 266 266 230 213 215 209 198 187 173 162 156 158 156 152 155 157 157 158 156 154 147 139 132 123 116 105 100 90
114 129 139 167 233 259 264 287 193 149 288 277 241 260 263 202 232 257 226 203 200 180 162 153 145 144 154 158 154 156 163 166 168 164 157 150 145 143 138 135 126 114 116 115
149 170 185 193 237 268 264 278 140 185 274 305 285 271 251 212 225 263 174 155 151 141 138 141 146 154 160 157 158 164 169 176 165 152 149 148 147 145 142 138 132 131 130 124
180 187 196 183 215 255 276 131 179 247 289 304 302 291 261 236 239 85 104 116 124 126 132 143 148 151 154 160 163 170 179 166 151 151 154 155 154 156 151 150 151 153 156 163
205 199 198 202 222 247 296 244 285 297 300 308 310 314 288 220 199 140 131 135 140 144 147 149 150 152 161 170 173 179 176 159 157 160 164 164 164 165 162 170 175 179 185 196
291 332 235 269 275 291 292 308 335 329 308 308 314 311 283 244 193 160 152 156 159 160 163 159 159 169 180 184 186 181 167 165 167 174 177 175 177 180 181 187 190 193 197 205
291 321 285 274 301 326 325 337 331 329 330 331 331 318 289 245 215 190 181 181 180 178 175 177 184 191 192 187 192 184 172 170 178 183 187 188 191 190 195 204 207 207 210 202
283 278 286 275 312 301 295 310 317 315 315 315 314 312 309 271 237 210 199 192 186 186 182 189 198 202 198 191 195 190 183 180 183 191 196 197 196 197 199 204 225 237 228 232
Height
1476 1480 1480 1483 1486 1489 1495 1501 1505 1505 1504 1508 1510 1510 1510 1510 1513 1515 1516 1517 1518 1519 1521 1522 1524 1525 1527 1529 1531 1532 1534 1536 1538 1540 1541 1542 1543 1544 1545 1546 1547 1547 1548 1548
1478 1480 1480 1483 1486 1489 1494 1501 1504 1504 1504 1507 1510 1511 1509 1509 1510 1510 1512 1513 1514 1516 1517 1519 1521 1522 1524 1526 1527 1529 1531 1533 1535 1536 1538 1539 1540 1541 1542 1542 1543 1543 1543 1543
1477 1478 1479 1483 1487 1491 1495 1500 1503 1505 1506 1507 1510 1513 1509 1506 1506 1507 1507 1508 1510 1511 1513 1515 1517 1519 1520 1522 1524 1526 1528 1530 1531 1533 1534 1535 1536 1536 1537 1537 1538 1538 1538 1538
1477 1478 1480 1483 1487 1490 1496 1497 1500 1503 1510 1515 1513 1519 1509 1504 1503 1501 1501 1502 1503 1506 1509 1511 1513 1515 1517 1519 1521 1523 1525 1526 1528 1529 1530 1530 1531 1531 1532 1532 1532 1533 1532 1532
1478 1478 1480 1484 1487 1489 1494 1496 1500 1504 1511 1516 1516 1519 1510 1502 1501 1494 1492 1494 1497 1500 1504 1507 1510 1512 1514 1516 1518 1519 1521 1522 1523 1525 1525 1526 1526 1526 1527 1527 1527 1527 1527 1526
1479 1480 1482 1483 1485 1489 1493 1499 1505 1510 1514 1519 1517 1519 1510 1501 1492 1488 1486 1487 1489 1494 1498 1502 1506 1508 1510 1512 1514 1516 1518 1519 1520 1520 1521 1521 1522 1522 1522 1521 1521 1521 1521 1520
1481 1482 1483 1483 1487 1492 1494 1503 1513 1516 1519 1519 1515 1514 1501 1489 1484 1483 1482 1482 1484 1487 1491 1496 1500 1504 1507 1509 1512 1513 1515 1516 1516 1517 1517 1517 1517 1517 1517 1517 1516 1516 1515 1515
1483 1486 1486 1485 1486 1490 1495 1500 1510 1514 1519 1519 1515 1512 1494 1483 1480 1479 1479 1479 1480 1482 1486 1490 1495 1500 1503 1507 1509 1511 1512 1512 1513 1513 1513 1513 1513 1512 1512 1512 1511 1511 1510 1510
1482 1486 1486 1486 1487 1489 1496 1500 1503 1513 1516 1517 1515 1506 1494 1480 1477 1476 1475 1475 1475 1478 1482 1487 1492 1497 1501 1504 1506 1508 1509 1509 1510 1510 1509 1509 1509 1508 1508 1508 1507 1507 1506 1506
1478 1484 1486 1487 1488 1491 1492 1497 1506 1512 1515 1512 1506 1504 1496 1482 1477 1475 1475 1474 1474 1477 1481 1486 1491 1495 1499 1502 1503 1505 1506 1506 1506 1506 1506 1505 1505 1505 1505 1504 1504 1503 1503 1502
1478 1483 1487 1488 1489 1490 1495 1497 1500 1507 1510 1512 1511 1501 1484 1480 1477 1475 1472 1472 1474 1477 1480 1485 1490 1494 1497 1499 1501 1502 1502 1502 1502 1502 1502 1502 1502 1501 1501 1501 1500 1500 1500 1499
1478 1483 1486 1489 1491 1490 1491 1493 1498 1504 1508 1511 1511 1500 1477 1477 1474 1472 1471 1472 1474 1478 1482 1486 1489 1492 1494 1496 1498 1498 1499 1499 1498 1498 1498 1498 1498 1498 1498 1497 1497 1497 1496 1496
1477 1484 1488 1491 1494 1493 1491 1492 1493 1498 1504 1510 1509 1495 1475 1474 1472 1471 1471 1473 1475 1478 1482 1484 1487 1490 1492 1493 1494 1495 1495 1495 1495 1494 1494 1494 1494 1494 1494 1494 1494 1494 1494 1493
1476 1482 1487 1488 1485 1486 1489 1490 1491 1495 1497 1499 1497 1488 1477 1473 1471 1471 1472 1473 1474 1477 1480 1482 1485 1487 1489 1490 1491 1491 1491 1491 1491 1491 1491 1491 1491 1491 1491 1491 1491 1491 1491 1491
1476 1482 1484 1484 1483 1485 1486 1486 1487 1488 1487 1489 1483 1482 1474 1471 1470 1470 1470 1471 1473 1475 1477 1479 1481 1484 1485 1486 1487 1487 1487 1487 1487 1487 1488 1488 1488 1488 1488 1488 1489 1489 1489 1489
1477 1482 1484 1485 1483 1484 1485 1484 1484 1483 1482 1480 1479 1473 1467 1468 1468 1467 1467 1468 1469 1470 1473 1475 1478 1480 1481 1483 1484 1484 1484 1484 1484 1484 1484 1485 1485 1486 1486 1486 1487 1487 1487 1487
1479 1483 1486 1488 1485 1482 1484 1475 1476 1477 1474 1474 1472 1464 1464 1465 1463 1462 1462 1463 1464 1466 1469 1472 1474 1476 1478 1479 1480 1481 1481 1481 1481 1481 1482 1482 1483 1483 1484 1485 1486 1486 1487 1487
1480 1483 1488 1490 1488 1491 1474 1467 1468 1470 1467 1467 1463 1459 1458 1457 1456 1457 1457 1458 1459 1462 1465 1468 1470 1473 1475 1476 1477 1478 1478 1478 1479 1479 1480 1480 1481 1482 1483 1484 1485 1486 1486 1487
1476 1481 1488 1491 1492 1484 1472 1465 1466 1468 1465 1460 1459 1456 1454 1453 1453 1452 1452 1453 1455 1458 1461 1464 1467 1469 1471 1472 1474 1474 1475 1476 1477 1477 1478 1479 1480 1481 1482 1483 1484 1485 1486 1486
1476 1478 1484 1487 1485 1482 1469 1463 1462 1465 1464 1457 1455 1453 1451 1451 1454 1448 1447 1449 1451 1454 1458 1461 1463 1465 1467 1469 1470 1472 1473 1473 1474 1475 1476 1478 1479 1480 1482 1483 1484 1485 1485 1486
1478 1479 1481 1483 1482 1477 1465 1462 1463 1468 1464 1455 1452 1450 1448 1447 1447 1446 1445 1446 1449 1451 1454 1457 1459 1462 1464 1466 1468 1469 1470 1472 1473 1474 1475 1477 1478 1480 1481 1482 1483 1484 1485 1485
1476 1478 1479 1480 1480 1477 1462 1462 1464 1463 1457 1454 1451 1448 1446 1444 1444 1444 1444 1445 1447 1449 1451 1454 1457 1459 1461 1463 1465 1467 1469 1470 1471 1473 1474 1476 1477 1479 1480 1481 1482 1483 1484 1484
1473 1473 1473 1473 1470 1463 1461 1461 1461 1459 1456 1454 1451 1448 1447 1445 1444 1444 1445 1446 1447 1449 1451 1453 1455 1457 1459 1461 1463 1465 1467 1469 1470 1472 1473 1475 1476 1478 1479 1480 1481 1482 1482 1482
1471 1470 1470 1469 1463 1460 1459 1458 1458 1456 1455 1453 1451 1449 1447 1446 1446 1445 1446 1446 1447 1448 1450 1451 1453 1455 1457 1460 1462 1464 1466 1467 1469 1470 1472 1473 1475 1476 1477 1478 1479 1480 1480 1480
1472 1471 1470 1467 1463 1459 1456 1457 1456 1454 1453 1451 1450 1449 1447 1447 1446 1446 1446 1446 1447 1448 1449 1450 1451 1453 1455 1457 1459 1461 1463 1465 1466 1468 1469 1471 1472 1474 1475 1476 1477 1477 1478 1478
1473 1474 1473 1468 1465 1464 1459 1456 1454 1452 1450 1449 1448 1446 1446 1446 1445 1445 1445 1445 1446 1447 1447 1448 1449 1451 1453 1454 1456 1458 1460 1462 1463 1465 1466 1468 1469 1470 1472 1473 1474 1474 1475 1475